Flag for Austria Weather past 2 weeks in Krems, Lower Austria, Austria

Now
61 °F

Passing clouds.


Feels Like: 61 °F
Forecast: 51 / 74 °F
Wind: 1 mph from North

Location: Tulln Airport

Current Time: Aug 30, 2014 at 10:42:24 PM

Latest Report: Aug 30, 2014 at 9:50 PM


Visibility: 12 mi

Pressure: 30.07 "Hg

Humidity: 100%

Dew point: 61 °F

Location of KremsLocation

Historic Weather in Krems — Graph

°F

Krems temperature yesterday

Maximum temperature yesterday: 77 °F (at 1:50 PM)
Minimum temperature yesterday: 48 °F (at 5:50 AM)
Average temperature yesterday: 67 °F

Past Weeks' High & Low Weather Summary

 TemperatureHumidityPressure
High81 °F (Aug 18, 2:50 PM)100% (Aug 19, 7:50 AM)30.15 "Hg (Aug 19, 7:50 AM)
Low48 °F (Aug 25, 5:50 AM)34% (Aug 18, 4:50 PM)29.74 "Hg (Aug 26, 2:50 PM)
Average64 °F74%29.99 "Hg
* Reported Aug 15 8:50 PM — Aug 30 8:50 PM, Krems, Weather by CustomWeather, © 2014

Note: Actual official high and low records may vary slightly from our data, if they occured in-between our weather recording intervals... More about our weather records

Advertising

Krems weather history for previous 24 hours

 ConditionsComfort  
Time TempWeatherWind HumidityBarometerVisibility
8:50 PM
Aug 30
63 °FPartly cloudy.1 mph94%30.07 "Hg16 mi
7:50 PM64 °FBroken clouds.3 mph88%30.07 "Hg19 mi
6:50 PM66 °FPartly sunny.5 mph88%30.04 "Hg19 mi
5:50 PM66 °FPartly sunny.7 mph88%30.07 "Hg16 mi
4:50 PM66 °FBroken clouds.6 mph88%30.07 "Hg16 mi
3:50 PM66 °FBroken clouds.8 mph88%30.09 "Hg9 mi
2:50 PM66 °FPartly sunny.6 mph88%30.09 "Hg9 mi
1:50 PM64 °FLight rain. Partly sunny.3 mph94%30.12 "Hg5 mi
12:50 PM63 °FRain. Partly sunny.3 mph94%30.12 "Hg4 mi
11:50 AM63 °FRain. Fog.5 mph100%30.12 "Hg2 mi
10:50 AM63 °FRain. Broken clouds.3 mph94%30.12 "Hg4 mi
9:50 AM63 °FRain. Partly sunny.3 mph94%30.09 "Hg4 mi
8:50 AM61 °FLight rain. Broken clouds.3 mph94%30.09 "Hg7 mi
7:50 AM61 °FPartly sunny.2 mph94%30.07 "Hg12 mi
6:50 AM59 °FLight rain. Passing clouds.1 mph94%30.07 "Hg12 mi
5:50 AM59 °FPassing clouds.2 mph94%30.07 "Hg12 mi
10:50 PM
Aug 29
64 °FPassing clouds.5 mph78%30.04 "Hg22 mi
Weather by CustomWeather, © 2014

See weather overviewHow to use our weather pages